Location: Bergheim
(50.9593°N, 6.6400°E)
Time: 07:36:10
(UTC+01:00)

ISS - Pass Details

Date: 23 November 2019
Orbit: 411 x 421 km, 51.6° (Epoch: 12 December)

Event Time Altitude Azimuth Distance (km) Brightness Sun altitude
Rises 19:12:38 0° 227° (SW) 2,350 0.8 -23.9°
Reaches altitude 10° 19:14:48 10° 218° (SW) 1,492 -0.5 -24.3°
Enters shadow 19:16:01 19° 207° (SSW) 1,064 -1.4 -24.4°
